SDR48QM EDDW-LGIR

Flight info

Callsign SDR48QM
Flight time N/A
Altitude 37000
Route NIE2L NIE Z88 UPDAT/N0440F370 T236 ADMOS T959 KENIG Z94 GALMA T703 DEXIT DCT NURMI DCT TISKO DCT DOBOT DCT MOJ DCT ALELU DCT MAVAR DCT BITLA UN132 ROPOX UM749 EPALO
Aircraft A319/M-SDE3FGHIRWY/LB1

Departure

Time N/A
Airport Bremen Airport (EDDW)

Arrival

Time 2026-04-27 15:11
Airport Heraklion International Nikos Kazantzakis Airport (LGIR)
Time Latitude Longitude Altitude Speed Heading
2026-04-27 14:34 37.18462 24.24833 37084 ft 463 kts 156°
2026-04-27 14:35 37.12496 24.28557 37084 ft 464 kts 156°
2026-04-27 14:35 37.06718 24.32150 37078 ft 464 kts 156°
2026-04-27 14:36 37.00923 24.35743 37074 ft 465 kts 156°
2026-04-27 14:36 36.95135 24.39331 37073 ft 465 kts 156°
2026-04-27 14:37 36.89337 24.42934 37073 ft 465 kts 156°
2026-04-27 14:37 36.83537 24.46528 37067 ft 466 kts 156°
2026-04-27 14:38 36.77714 24.50119 36767 ft 467 kts 156°
2026-04-27 14:38 36.74788 24.51889 36510 ft 466 kts 160°
2026-04-27 14:38 36.71783 24.53362 36252 ft 465 kts 162°
2026-04-27 14:38 36.68759 24.54812 35910 ft 466 kts 162°
2026-04-27 14:39 36.65719 24.56271 35063 ft 470 kts 162°
2026-04-27 14:39 36.62653 24.57744 34207 ft 474 kts 162°
2026-04-27 14:39 36.59566 24.59230 33302 ft 477 kts 162°
2026-04-27 14:39 36.56485 24.60714 32763 ft 471 kts 162°
2026-04-27 14:40 36.53449 24.62174 32185 ft 466 kts 162°
2026-04-27 14:40 36.50576 24.63552 31646 ft 462 kts 162°
2026-04-27 14:40 36.47593 24.64982 31086 ft 457 kts 161°
2026-04-27 14:40 36.44646 24.66394 30536 ft 453 kts 162°
2026-04-27 14:41 36.41713 24.67793 29959 ft 449 kts 162°
2026-04-27 14:41 36.38810 24.69177 29393 ft 444 kts 162°
2026-04-27 14:41 36.35948 24.70539 28863 ft 438 kts 162°
2026-04-27 14:41 36.33117 24.71890 28337 ft 433 kts 161°
2026-04-27 14:42 36.30322 24.73226 27830 ft 428 kts 161°
2026-04-27 14:42 36.27559 24.74547 27308 ft 424 kts 161°
2026-04-27 14:42 36.24821 24.75856 26814 ft 419 kts 161°
2026-04-27 14:42 36.22115 24.77145 26330 ft 415 kts 161°
2026-04-27 14:43 36.19429 24.78423 25864 ft 411 kts 161°
2026-04-27 14:43 36.16769 24.79686 25401 ft 408 kts 161°
2026-04-27 14:43 36.14126 24.80938 24951 ft 405 kts 161°
2026-04-27 14:43 36.11504 24.82176 24494 ft 403 kts 161°
2026-04-27 14:44 36.08892 24.83406 24053 ft 400 kts 161°
2026-04-27 14:44 36.06298 24.84630 23581 ft 398 kts 161°
2026-04-27 14:44 36.03719 24.85850 23081 ft 395 kts 161°
2026-04-27 14:44 36.01162 24.87065 22627 ft 392 kts 161°
2026-04-27 14:45 35.98631 24.88266 22167 ft 388 kts 161°
2026-04-27 14:45 35.96152 24.89438 21715 ft 385 kts 161°
2026-04-27 14:45 35.93660 24.90613 21256 ft 382 kts 161°
2026-04-27 14:45 35.91188 24.91776 20798 ft 379 kts 161°
2026-04-27 14:46 35.88733 24.92932 20332 ft 377 kts 161°
2026-04-27 14:46 35.86291 24.94085 19857 ft 375 kts 161°
2026-04-27 14:46 35.83861 24.95231 19403 ft 373 kts 161°
2026-04-27 14:46 35.81446 24.96367 18933 ft 371 kts 161°
2026-04-27 14:47 35.79004 24.97513 18461 ft 370 kts 160°
2026-04-27 14:47 35.76607 24.98638 17963 ft 368 kts 160°
2026-04-27 14:47 35.74223 24.99756 17511 ft 365 kts 160°
2026-04-27 14:47 35.71890 25.00849 17066 ft 362 kts 160°
2026-04-27 14:48 35.69545 25.01948 16620 ft 360 kts 159°
2026-04-27 14:48 35.65835 25.05890 15565 ft 363 kts 117°
2026-04-27 14:48 35.65124 25.08840 15172 ft 358 kts 94°
2026-04-27 14:49 35.65269 25.11841 15050 ft 350 kts 80°
2026-04-27 14:49 35.65560 25.14809 15028 ft 350 kts 84°
2026-04-27 14:49 35.65672 25.17824 14255 ft 359 kts 89°
2026-04-27 14:49 35.65590 25.20922 13606 ft 363 kts 94°
2026-04-27 14:50 35.65328 25.24001 13059 ft 361 kts 98°
2026-04-27 14:50 35.64889 25.27030 12543 ft 359 kts 102°
2026-04-27 14:50 35.64260 25.29984 12030 ft 356 kts 107°
2026-04-27 14:50 35.63447 25.32842 11475 ft 353 kts 111°
2026-04-27 14:51 35.62465 25.35590 10877 ft 350 kts 116°
2026-04-27 14:51 35.61319 25.38215 10367 ft 345 kts 121°
2026-04-27 14:51 35.60053 25.40636 10238 ft 328 kts 125°
2026-04-27 14:51 35.59178 25.42112 10162 ft 318 kts 128°
2026-04-27 14:52 35.57330 25.44831 9843 ft 305 kts 134°
2026-04-27 14:52 35.55615 25.46290 9378 ft 300 kts 160°
2026-04-27 14:52 35.53586 25.46677 8956 ft 295 kts 186°
2026-04-27 14:52 35.51656 25.45991 8544 ft 288 kts 211°
2026-04-27 14:53 35.50077 25.44506 8104 ft 285 kts 224°
2026-04-27 14:53 35.48594 25.42928 7608 ft 284 kts 224°
2026-04-27 14:53 35.47070 25.41363 7113 ft 284 kts 217°
2026-04-27 14:53 35.45270 25.40415 6410 ft 295 kts 193°
2026-04-27 14:54 35.43160 25.40505 5594 ft 306 kts 166°
2026-04-27 14:54 35.41242 25.41625 4999 ft 303 kts 150°
2026-04-27 14:54 35.39472 25.42869 4797 ft 284 kts 150°
2026-04-27 14:54 35.37716 25.43732 4634 ft 261 kts 176°
2026-04-27 14:55 35.36053 25.43325 4487 ft 236 kts 214°
2026-04-27 14:55 35.35019 25.41873 4137 ft 226 kts 247°
2026-04-27 14:55 35.34354 25.40131 3792 ft 226 kts 249°
2026-04-27 14:55 35.33698 25.38393 3468 ft 224 kts 249°
2026-04-27 14:56 35.33049 25.36641 3135 ft 228 kts 251°
2026-04-27 14:56 35.32842 25.35665 2998 ft 223 kts 268°
2026-04-27 14:56 35.32935 25.33796 2695 ft 219 kts 277°
2026-04-27 14:56 35.33055 25.31967 2385 ft 212 kts 276°
2026-04-27 14:57 35.33164 25.30186 2093 ft 207 kts 276°
2026-04-27 14:57 35.33276 25.28446 1799 ft 203 kts 276°
2026-04-27 14:57 35.33391 25.26737 1482 ft 199 kts 277°
2026-04-27 14:57 35.33501 25.25095 1205 ft 187 kts 277°
2026-04-27 14:58 35.33603 25.23547 916 ft 178 kts 277°
2026-04-27 14:58 35.33699 25.22076 661 ft 169 kts 277°
2026-04-27 14:58 35.33805 25.20568 1207 ft 178 kts 277°
2026-04-27 14:58 35.33900 25.19088 2117 ft 165 kts 276°
2026-04-27 14:59 35.33982 25.18143 2514 ft 176 kts 285°
2026-04-27 14:59 35.34657 25.16808 2885 ft 200 kts 321°
2026-04-27 14:59 35.36032 25.16287 2970 ft 221 kts
2026-04-27 14:59 35.37586 25.16743 3020 ft 242 kts 18°
2026-04-27 15:00 35.39172 25.17492 3012 ft 248 kts 20°
2026-04-27 15:00 35.40783 25.18255 3011 ft 249 kts 19°
2026-04-27 15:00 35.42416 25.18948 3012 ft 248 kts 16°
2026-04-27 15:00 35.44043 25.19649 3003 ft 249 kts 22°
2026-04-27 15:01 35.45402 25.20964 3011 ft 254 kts 52°
2026-04-27 15:01 35.46045 25.22962 2998 ft 256 kts 83°
2026-04-27 15:01 35.45851 25.25135 3008 ft 259 kts 103°
2026-04-27 15:01 35.45380 25.27274 3010 ft 260 kts 105°
2026-04-27 15:02 35.44920 25.29415 3000 ft 260 kts 99°
2026-04-27 15:02 35.44800 25.31615 3009 ft 259 kts 85°
2026-04-27 15:02 35.44867 25.33809 3000 ft 254 kts 86°
2026-04-27 15:02 35.44918 25.35948 2999 ft 249 kts 87°
2026-04-27 15:03 35.44964 25.38068 3005 ft 249 kts 87°
2026-04-27 15:03 35.45009 25.40189 3003 ft 249 kts 87°
2026-04-27 15:03 35.45043 25.42311 3001 ft 249 kts 87°
2026-04-27 15:03 35.45080 25.44430 2999 ft 249 kts 87°
2026-04-27 15:04 35.45084 25.46553 2995 ft 250 kts 94°
2026-04-27 15:04 35.44478 25.48535 2997 ft 252 kts 126°
2026-04-27 15:04 35.43134 25.49870 2998 ft 251 kts 158°
2026-04-27 15:04 35.41461 25.50182 2994 ft 247 kts 189°
2026-04-27 15:05 35.39876 25.49459 3002 ft 244 kts 212°
2026-04-27 15:05 35.38489 25.48278 2975 ft 242 kts 220°
2026-04-27 15:05 35.37171 25.47010 2681 ft 239 kts 221°
2026-04-27 15:05 35.35908 25.45765 2560 ft 227 kts 223°
2026-04-27 15:06 35.35076 25.44508 2443 ft 215 kts 245°
2026-04-27 15:06 35.34582 25.42841 2348 ft 203 kts 255°
2026-04-27 15:06 35.34165 25.41246 2331 ft 194 kts 255°
2026-04-27 15:06 35.33756 25.39685 2305 ft 190 kts 255°
2026-04-27 15:07 35.33345 25.38125 2323 ft 190 kts 254°
2026-04-27 15:07 35.32950 25.36573 2302 ft 190 kts 258°
2026-04-27 15:07 35.32802 25.35002 2297 ft 188 kts 272°
2026-04-27 15:07 35.32904 25.33388 2321 ft 188 kts 277°
2026-04-27 15:08 35.33014 25.31818 2311 ft 188 kts 276°
2026-04-27 15:08 35.33125 25.30200 2115 ft 189 kts 277°
2026-04-27 15:08 35.33236 25.28617 1832 ft 185 kts 276°
2026-04-27 15:08 35.33347 25.27068 1544 ft 179 kts 277°
2026-04-27 15:09 35.33453 25.25583 1279 ft 170 kts 277°
2026-04-27 15:09 35.33547 25.24190 1029 ft 158 kts 277°
2026-04-27 15:09 35.33636 25.22922 797 ft 142 kts 277°
2026-04-27 15:09 35.33714 25.21762 561 ft 134 kts 277°
2026-04-27 15:10 35.33787 25.20643 398 ft 130 kts 278°
2026-04-27 15:10 35.33872 25.19545 213 ft 131 kts 275°
2026-04-27 15:10 35.33947 25.18460 87 ft 119 kts 275°
2026-04-27 15:10 35.34001 25.17628 87 ft 74 kts 274°
2026-04-27 15:11 35.34031 25.17162 86 ft 46 kts 275°
2026-04-27 15:11 35.34049 25.16905 85 ft 14 kts 275°
2026-04-27 15:11 35.34006 25.16886 87 ft 6 kts 124°
2026-04-27 15:11 35.33990 25.16915 86 ft 0 kts 124°
2026-04-27 15:14 35.33962 25.16968 88 ft 13 kts 120°
2026-04-27 15:14 35.33937 25.17101 84 ft 18 kts 93°
2026-04-27 15:14 35.33929 25.17228 85 ft 9 kts 95°
2026-04-27 15:15 35.33923 25.17307 85 ft 10 kts 95°
2026-04-27 15:15 35.33918 25.17392 85 ft 10 kts 95°
2026-04-27 15:15 35.33912 25.17475 89 ft 11 kts 95°
2026-04-27 15:15 35.33906 25.17570 87 ft 11 kts 94°
2026-04-27 15:16 35.33872 25.17629 86 ft 9 kts 170°
2026-04-27 15:16 35.33809 25.17623 89 ft 7 kts 189°
2026-04-27 15:16 35.33789 25.17594 88 ft 4 kts 257°
2026-04-27 15:16 35.33792 25.17564 85 ft 3 kts 297°
2026-04-27 15:17 35.33806 25.17549 89 ft 1 kts 322°
2026-04-27 15:17 35.33807 25.17548 88 ft 0 kts 322°